Weather History for KVLD - February, 2013

Change the Weather History Date:

Wednesday, February 20, 2013

  Actual Average Record
Temperature  
Mean Temperature 50 °F 55 °F  
Max Temperature 65 °F 68 °F 85 °F (2014)
Min Temperature 34 °F 43 °F 23 °F (2015)
Degree Days  
Heating Degree Days 15 10  
Month to date heating degree days 206 237  
Since 1 July heating degree days 835 1306  
Moisture  
Dew Point 32 °F    
Average Humidity 55    
Maximum Humidity 89    
Minimum Humidity 20    
Precipitation  
Precipitation 0.00 in 0.19 in 0.00 in (2015)
Month to date precipitation 0.71 2.38  
Year to date precipitation 1.47 6.95  
Sea Level Pressure  
Sea Level Pressure 30.17 in    
Wind  
Wind Speed 3 mph (NNE)    
Max Wind Speed 12 mph    
Max Gust Speed 15 mph    
Visibility 8 miles    
Events      
T = Trace of Precipitation, MM = Missing Value Source: NWS Daily Summary

Daily Weather History Graph

Daily Weather History Graph

Search for Another Location

Airport or City:

Trip Planner

Search our weather history database for the weather conditions in past years. The results will help you decide how hot, cold, wet, or windy it might be!

Date:

Astronomy

Feb. 20, 2013 Rise Set
Actual Time 7:08 AM EST 6:25 PM EST
Civil Twilight 6:44 AM EST 6:49 PM EST
Nautical Twilight 6:16 AM EST 7:17 PM EST
Astronomical Twilight 5:48 AM EST 7:45 PM EST
Moon 1:57 PM EST (2/20) 3:16 AM EST (2/20)
Length of Visible Light 12h 05m
Length of Day
11h 16m
Waxing Gibbous, 76% of the Moon is Illuminated
Feb 20
Waxing Gibbous
Feb 25
Full
Mar 4
Last Quarter
Mar 11
New
Mar 19
First Quarter

Hourly Weather History & Observations

Time (EST) Temp. Windchill Dew Point Humidity Pressure Visibility Wind Dir Wind Speed Gust Speed Precip Events Conditions
12:05 AM 46.4 °F - 42.8 °F 87% 30.13 in 2.0 mi Calm Calm - N/A   Clear
12:13 AM 46.4 °F 45.2 °F 42.8 °F 87% 30.13 in 5.0 mi WNW 3.5 mph - N/A   Clear
12:53 AM 44.1 °F - 39.9 °F 85% 30.16 in 7.0 mi Calm Calm - N/A   Clear
1:53 AM 39.9 °F 37.8 °F 36.0 °F 86% 30.18 in 6.0 mi South 3.5 mph - N/A   Clear
2:00 AM 37.4 °F - 35.6 °F 93% 30.15 in 9.0 mi Calm Calm - N/A   Partly Cloudy
2:37 AM 39.2 °F - 35.6 °F 87% 30.14 in 1.8 mi Calm Calm - N/A   Partly Cloudy
2:40 AM 39.2 °F - 35.6 °F 87% 30.14 in 0.8 mi Calm Calm - N/A   Mist
2:50 AM 39.2 °F - 35.6 °F 87% 30.14 in 1.2 mi Calm Calm - N/A   Scattered Clouds
2:53 AM 39.0 °F - 35.1 °F 86% 30.17 in 2.5 mi Calm Calm - N/A   Partly Cloudy
3:00 AM 37.4 °F - 35.6 °F 93% 30.15 in 7.0 mi Calm Calm - N/A   Partly Cloudy
3:53 AM 42.1 °F 37.1 °F 34.0 °F 73% 30.17 in 10.0 mi North 8.1 mph - N/A   Clear
4:53 AM 37.9 °F 33.5 °F 30.9 °F 76% 30.18 in 10.0 mi North 5.8 mph - N/A   Clear
5:53 AM 34.0 °F - 30.9 °F 89% 30.22 in 10.0 mi Calm Calm - N/A   Clear
7:53 AM 35.1 °F - 32.0 °F 89% 30.24 in 10.0 mi Calm Calm - N/A   Clear
8:53 AM 46.0 °F 43.1 °F 32.0 °F 58% 30.24 in 10.0 mi NNE 5.8 mph - N/A   Clear
9:53 AM 50.0 °F - 25.0 °F 38% 30.25 in 10.0 mi NE 9.2 mph - N/A   Clear
10:53 AM 53.1 °F - 25.0 °F 34% 30.22 in 10.0 mi NNE 3.5 mph - N/A   Clear
11:53 AM 57.0 °F - 23.0 °F 27% 30.21 in 10.0 mi North 5.8 mph - N/A   Clear
12:53 PM 60.1 °F - 21.0 °F 22% 30.16 in 10.0 mi Variable 4.6 mph - N/A   Clear
1:53 PM 62.1 °F - 21.9 °F 21% 30.17 in 10.0 mi Variable 3.5 mph - N/A   Clear
3:53 PM 63.0 °F - 23.0 °F 22% 30.14 in 10.0 mi Variable 3.5 mph - N/A   Clear
4:53 PM 62.1 °F - 21.9 °F 21% 30.14 in 10.0 mi Variable 4.6 mph - N/A   Clear
5:53 PM 57.9 °F - 26.1 °F 30% 30.16 in 10.0 mi Calm Calm - N/A   Clear
6:53 PM 53.1 °F - 34.0 °F 48% 30.14 in 10.0 mi ESE 3.5 mph - N/A   Clear
7:53 PM 48.9 °F - 35.1 °F 59% 30.17 in 10.0 mi Calm Calm - N/A   Clear
8:53 PM 46.0 °F - 32.0 °F 58% 30.17 in 10.0 mi Calm Calm - N/A   Clear
9:53 PM 43.0 °F - 30.9 °F 62% 30.16 in 10.0 mi Calm Calm - N/A   Clear
10:53 PM 42.1 °F - 33.1 °F 70% 30.15 in 10.0 mi Calm Calm - N/A   Clear
11:53 PM 41.0 °F - 35.1 °F 79% 30.15 in 10.0 mi Calm Calm - N/A   Clear